| time (UTC) | temp C | wind direction | speed KPH | gust KPH | rain 1hr cm | rain 24hr cm | rain mn cm | humidity % | barometer mb |
| 20260905070113 | 16 | 248 | 1.6 | 6.4 | 0.00 | 0.18 | 0.00 | 86 | 1015.4 |
| 20260905064559 | 17 | 267 | 3.2 | 12.9 | 0.00 | 0.18 | 0.00 | 86 | 1015.5 |
| 20260905063058 | 17 | 263 | 3.2 | 6.4 | 0.00 | 0.18 | 0.00 | 86 | 1015.2 |
| 20260905060056 | 17 | 271 | 0.0 | 9.7 | 0.00 | 0.18 | 0.00 | 87 | 1015.1 |
| 20260905054555 | 17 | 265 | 1.6 | 6.4 | 0.00 | 0.18 | 0.00 | 86 | 1015.0 |
| 20260905053108 | 17 | 266 | 4.8 | 9.7 | 0.00 | 0.18 | 0.00 | 86 | 1015.1 |
| 20260905050052 | 17 | 272 | 3.2 | 9.7 | 0.00 | 0.20 | 0.18 | 86 | 1014.9 |
| 20260905044551 | 17 | 265 | 6.4 | 11.3 | 0.00 | 0.20 | 0.18 | 86 | 1014.9 |
| 20260905043050 | 17 | 265 | 6.4 | 11.3 | 0.00 | 0.20 | 0.18 | 86 | 1015.0 |
| 20260905040050 | 17 | 275 | 3.2 | 9.7 | 0.00 | 0.20 | 0.18 | 86 | 1014.9 |
| 20260905034552 | 17 | 265 | 1.6 | 11.3 | 0.00 | 0.20 | 0.18 | 86 | 1015.0 |
| 20260905033054 | 17 | 263 | 3.2 | 6.4 | 0.00 | 0.20 | 0.18 | 86 | 1015.0 |
| 20260905030056 | 17 | 267 | 0.0 | 9.7 | 0.00 | 0.20 | 0.18 | 86 | 1015.1 |
| 20260905024620 | 17 | 253 | 8.0 | 14.5 | 0.00 | 0.20 | 0.18 | 86 | 1015.0 |
| 20260905023055 | 17 | 269 | 4.8 | 12.9 | 0.00 | 0.20 | 0.18 | 85 | 1015.0 |
| 20260905020050 | 17 | 265 | 4.8 | 11.3 | 0.00 | 0.20 | 0.18 | 85 | 1014.9 |
| 20260905014546 | 17 | 260 | 1.6 | 14.5 | 0.00 | 0.20 | 0.18 | 86 | 1014.9 |
| 20260905013045 | 18 | 277 | 8.0 | 14.5 | 0.00 | 0.20 | 0.18 | 85 | 1014.3 |
| 20260905010044 | 18 | 269 | 6.4 | 16.1 | 0.00 | 0.20 | 0.18 | 85 | 1014.4 |
| 20260905004550 | 18 | 265 | 8.0 | 17.7 | 0.00 | 0.20 | 0.18 | 85 | 1014.1 |
| 20260905003040 | 18 | 261 | 9.7 | 19.3 | 0.00 | 0.20 | 0.18 | 85 | 1014.1 |
| 20260905000039 | 18 | 266 | 9.7 | 16.1 | 0.00 | 0.20 | 0.18 | 85 | 1014.0 |
| 20260904234546 | 18 | 257 | 4.8 | 16.1 | 0.00 | 0.20 | 0.18 | 85 | 1013.8 |
| 20260904233052 | 19 | 263 | 9.7 | 16.1 | 0.00 | 0.20 | 0.18 | 85 | 1013.4 |
| 20260904230035 | 19 | 267 | 4.8 | 9.7 | 0.03 | 0.20 | 0.18 | 85 | 1013.2 |
| 20260904224542 | 19 | 271 | 3.2 | 6.4 | 0.03 | 0.20 | 0.18 | 85 | 1013.3 |
| 20260904223040 | 20 | 271 | 0.0 | 9.7 | 0.03 | 0.20 | 0.18 | 86 | 1013.1 |
| 20260904220034 | 20 | 271 | 3.2 | 9.7 | 0.00 | 0.18 | 0.15 | 86 | 1012.9 |
| 20260904214541 | 20 | 268 | 1.6 | 9.7 | 0.00 | 0.18 | 0.15 | 86 | 1012.6 |
| 20260904213033 | 20 | 275 | 0.0 | 4.8 | 0.00 | 0.18 | 0.15 | 86 | 1012.5 |
| 20260904210031 | 20 | 281 | 3.2 | 12.9 | 0.00 | 0.18 | 0.15 | 86 | 1012.3 |
| 20260904204531 | 20 | 281 | 4.8 | 14.5 | 0.00 | 0.18 | 0.15 | 86 | 1012.1 |
| 20260904203032 | 20 | 274 | 4.8 | 8.0 | 0.00 | 0.18 | 0.15 | 86 | 1012.2 |
| 20260904200031 | 20 | 267 | 4.8 | 9.7 | 0.03 | 0.18 | 0.15 | 86 | 1012.4 |
| 20260904194529 | 19 | 269 | 6.4 | 11.3 | 0.03 | 0.18 | 0.15 | 86 | 1012.5 |
| 20260904193041 | 19 | 271 | 4.8 | 9.7 | 0.03 | 0.18 | 0.15 | 86 | 1012.5 |
| 20260904190025 | 19 | 269 | 1.6 | 9.7 | 0.00 | 0.15 | 0.13 | 87 | 1012.6 |
| 20260904184525 | 19 | 270 | 3.2 | 6.4 | 0.00 | 0.15 | 0.13 | 87 | 1012.5 |
| 20260904183024 | 19 | 269 | 3.2 | 6.4 | 0.00 | 0.15 | 0.13 | 87 | 1012.5 |
| 20260904180022 | 19 | 266 | 3.2 | 6.4 | 0.00 | 0.15 | 0.13 | 87 | 1012.6 |
| 20260904174527 | 18 | 265 | 1.6 | 4.8 | 0.00 | 0.15 | 0.13 | 87 | 1012.4 |
| 20260904173021 | 18 | 265 | 3.2 | 9.7 | 0.00 | 0.15 | 0.13 | 87 | 1012.4 |
| 20260904170020 | 18 | 265 | 3.2 | 9.7 | 0.00 | 0.25 | 0.13 | 87 | 1012.4 |
| 20260904164520 | 18 | 270 | 1.6 | 3.2 | 0.00 | 0.25 | 0.13 | 87 | 1012.4 |
| 20260904163024 | 18 | 270 | 1.6 | 6.4 | 0.00 | 0.25 | 0.13 | 87 | 1012.3 |
| 20260904160021 | 18 | 283 | 1.6 | 4.8 | 0.00 | 0.25 | 0.13 | 87 | 1012.2 |
| 20260904154517 | 18 | 283 | 1.6 | 4.8 | 0.00 | 0.25 | 0.13 | 87 | 1012.2 |
| 20260904153014 | 18 | 271 | 1.6 | 4.8 | 0.00 | 0.25 | 0.13 | 87 | 1012.3 |
| 20260904150015 | 18 | 263 | 3.2 | 9.7 | 0.00 | 0.25 | 0.13 | 87 | 1012.2 |
| 20260904144510 | 18 | 286 | 0.0 | 3.2 | 0.00 | 0.25 | 0.13 | 87 | 1012.2 |
| 20260904143011 | 18 | 286 | 1.6 | 4.8 | 0.00 | 0.25 | 0.13 | 87 | 1012.2 |
| 20260904140006 | 17 | 275 | 0.0 | 3.2 | 0.00 | 0.25 | 0.13 | 87 | 1012.3 |
| 20260904134507 | 17 | 275 | 0.0 | 4.8 | 0.00 | 0.25 | 0.13 | 87 | 1012.5 |
| 20260904133006 | 17 | 283 | 0.0 | 3.2 | 0.00 | 0.25 | 0.13 | 87 | 1012.4 |
| 20260904130006 | 17 | 277 | 0.0 | 3.2 | 0.00 | 0.25 | 0.13 | 87 | 1012.3 |
| 20260904124505 | 17 | 281 | 3.2 | 6.4 | 0.00 | 0.25 | 0.13 | 86 | 1012.2 |
| 20260904123005 | 17 | 292 | 3.2 | 4.8 | 0.00 | 0.25 | 0.13 | 86 | 1012.2 |
| 20260904120007 | 17 | 281 | 0.0 | 8.0 | 0.00 | 0.25 | 0.13 | 86 | 1012.2 |
| 20260904114503 | 16 | 268 | 4.8 | 11.3 | 0.00 | 0.25 | 0.13 | 86 | 1012.1 |
| 20260904113002 | 16 | 267 | 3.2 | 11.3 | 0.03 | 0.25 | 0.13 | 86 | 1011.8 |
| 20260904110001 | 16 | 268 | 3.2 | 9.7 | 0.03 | 0.25 | 0.13 | 86 | 1011.2 |
| 20260904104611 | 16 | 265 | 6.4 | 12.9 | 0.03 | 0.25 | 0.13 | 86 | 1011.9 |
| 20260904103106 | 17 | 260 | 6.4 | 16.1 | 0.05 | 0.25 | 0.13 | 85 | 1012.0 |
| 20260904100058 | 17 | 288 | 4.8 | 11.3 | 0.03 | 0.23 | 0.10 | 85 | 1012.0 |
| 20260904094556 | 17 | 279 | 8.0 | 14.5 | 0.10 | 0.23 | 0.10 | 85 | 1011.7 |
| 20260904093056 | 17 | 274 | 6.4 | 17.7 | 0.08 | 0.20 | 0.08 | 85 | 1012.3 |
| 20260904090051 | 17 | 257 | 11.3 | 19.3 | 0.08 | 0.20 | 0.08 | 84 | 1012.1 |
| 20260904084549 | 17 | 266 | 12.9 | 19.3 | 0.00 | 0.13 | 0.00 | 83 | 1012.5 |
| 20260904083055 | 17 | 259 | 1.6 | 12.9 | 0.00 | 0.13 | 0.00 | 84 | 1012.4 |
| 20260904080159 | 17 | 286 | 3.2 | 6.4 | 0.00 | 0.13 | 0.00 | 84 | 1011.7 |
| 20260904074557 | 17 | 290 | 1.6 | 6.4 | 0.00 | 0.13 | 0.00 | 84 | 1011.3 |
| 20260904073047 | 17 | 290 | 0.0 | 4.8 | 0.00 | 0.13 | 0.00 | 84 | 1011.7 |